Other Public Products
Issued by NWS Charleston, SC

Current Version | Previous Version | Graphics & Text | Print | Product List | Glossary On
Versions: 1 2 3 4 5 6 7 8 9 10 11 12 13 14 15 16 17 18 19 20 21 22 23 24 25 26 27 28 29 30 31 32 33 34 35 36 37 38 39 40 41 42 43 44 45 46 47 48 49 50
589
FPUS82 KCHS 180712
OPUCHS

TEST...KCHS/KSAV Gateway Observations...TEST
National Weather Service Charleston SC
200 AM EST MON DEC 18 2017

NOTE: "fair" indicates few or no clouds below 12,000 feet with no
significant weather and/or obstructions to visibility.

SCZ050-WAZ558-NCZ071-TXZ119-213-PAZ071-DCZ001-FLZ074-172-MI076-
NYZ176-178-MAZ016-IL014-TNZ027-NJZ106-GAZ044-MD014-180800-

...Gateway Observations for Charleston International...

CITY           SKY/WX    TMP DP  RH WIND       PRES   REMARKS
Chas Airport   CLOUDY    54  52  93 CALM      30.18F
Seattle        CLOUDY    50  43  77 S18G24    29.96F
Charlotte      CLOUDY    49  42  77 S3        30.17S
Dallas DFW     CLOUDY    50  47  89 SE8       30.12R FOG
Dallas Love    CLOUDY    50  47  89 S7        30.13S
Philladelphia  CLOUDY    38  32  79 NE7       30.15F WCI  33
Wash National  CLOUDY    42  35  76 S3        30.13F
Baltimore      CLOUDY    39  34  82 E3        30.12F
Miami          MOCLDY    73  70  90 E3        30.20S
Detroit        MOCLDY    37  34  89 SW10      29.99F WCI  30
Newark         LGTSLEET  35  28  75 NE6       30.19S WCI  30
Laguardia      CLOUDY    35  23  61 E7        30.19S WCI  29
J F K          CLOUDY    34  24  67 NE8       30.20F WCI  27
Boston Logan   CLOUDY    22   6  50 N7        30.25R WCI  13
Ft. Lauderdale CLOUDY    74  72  93 SE3       30.19F
Chicago O`Hare CLOUDY    41  36  82 S7        29.94F
Chicago Midway CLOUDY    43  39  86 SW7       29.95F
Houston Bush   CLOUDY    56  55  97 NE5       30.12F
Houston Hobby  CLOUDY    60  58  92 NE3       30.12S
Nashville      CLOUDY    47  46  97 S5        30.14S FOG
Atlanta        CLOUDY    47  46  97 CALM      30.17R FOG

$$

GAZ044-118-TXZ119-213-NCZ071-DCZ001-MDZ014-506-PAZ021-071-NJZ106-
NYZ176-178-MAZ106-OHZ011-021-055-MIZ076-KYZ091-ILZ014-INZ047-
MNZ060-ONZ431-180800-

...Gateway Observations for Savannah International...

CITY           SKY/WX    TMP DP  RH WIND       PRES   REMARKS
Savannah Arpt  CLOUDY    52  50  93 CALM      30.19S
Atlanta        CLOUDY    47  46  97 CALM      30.17R FOG
Charlotte      CLOUDY    49  42  77 S3        30.17S
Dallas DFW     CLOUDY    50  47  89 SE8       30.12R FOG
Houston Bush   CLOUDY    56  55  97 NE5       30.12F
Wash National  CLOUDY    42  35  76 S3        30.13F
Wash Dulles    CLOUDY    39  35  86 CALM      30.12F
Baltimore      CLOUDY    39  34  82 E3        30.12F
Philadelphia   CLOUDY    38  32  79 NE7       30.15F WCI  33
Newark         LGTSLEET  35  28  75 NE6       30.19S WCI  30
Laguardia      CLOUDY    35  23  61 E7        30.19S WCI  29
J F K          CLOUDY    34  24  67 NE8       30.20F WCI  27
Boston         CLOUDY    22   6  50 N7        30.25R WCI  13
Pittsburg      CLOUDY    39  32  76 S3        30.06F
Akron          CLOUDY    36  31  82 S5        30.04F WCI  32
Cleveland      CLOUDY    38  34  85 SW6       30.05F WCI  33
Cincinnati     DRIZZLE   41  40  96 S7        30.08F
Columbus       CLEAR     36  35  97 S7        30.08S WCI  30
Detroit        MOCLDY    37  34  89 SW10      29.99F WCI  30
Chicago O`Hare CLOUDY    41  36  82 S7        29.94F
Minneapolis    CLOUDY    26  26 100 SW5       29.92F FOG     WCI  20
Indianapolis   CLOUDY    41  38  89 SW12      30.05F
Toronto Canada CLOUDY    19  14  79 N5        30.03F WCI  13

$$




USA.gov is the U.S. government's official web portal to all federal, state and local government web resources and services.